This is the latest recevied weather packets stored in our database for station/object N7IGG. If no packets are shown the sender has not sent any weather packets the latest 10 day(s).
| Time | Temp. | Humidity | Pressure | Rain* | Wind** | Luminosity | Snow |
|---|---|---|---|---|---|---|---|
| 1778107498 | 13.33° C | 85% | 1020.8 hPa | 0 mm | - | 93 W/m² | - |
| 1778107194 | 12.78° C | 85% | 1020.9 hPa | 0 mm | - | 84 W/m² | - |
| 1778106890 | 12.78° C | 85% | 1021.1 hPa | 0 mm | - | 104 W/m² | - |
| 1778106587 | 12.78° C | 85% | 1021 hPa | 0 mm | - | 119 W/m² | - |
| 1778106284 | 12.78° C | 85% | 1021.1 hPa | 0 mm | - | 124 W/m² | - |
| 1778105981 | 12.78° C | 85% | 1021.2 hPa | 0 mm | - | 106 W/m² | - |
| 1778105678 | 12.78° C | 85% | 1021.1 hPa | 0 mm | - | 105 W/m² | - |
| 1778105376 | 13.33° C | 84% | 1021 hPa | 0 mm | - | 89 W/m² | - |
| 1778105071 | 13.33° C | 84% | 1021.2 hPa | 0 mm | - | 102 W/m² | - |
| 1778104768 | 13.33° C | 84% | 1021.2 hPa | 0 mm | - | 98 W/m² | - |
| 1778104464 | 13.33° C | 83% | 1020.9 hPa | 0 mm | - | 99 W/m² | - |
| 1778104160 | 13.33° C | 83% | 1020.9 hPa | 0 mm | - | 163 W/m² | - |
| 1778103857 | 13.33° C | 83% | 1021.1 hPa | 0 mm | - | 160 W/m² | - |
| 1778103555 | 13.33° C | 83% | 1021.1 hPa | 0 mm | - | 292 W/m² | - |
| 1778103252 | 13.33° C | 83% | 1021 hPa | 0 mm | - | 350 W/m² | - |
| 1778102949 | 13.33° C | 84% | 1021.3 hPa | 0 mm | - | 245 W/m² | - |
| 1778102645 | 12.78° C | 84% | 1021.2 hPa | 0 mm | - | 242 W/m² | - |
| 1778102340 | 13.33° C | 85% | 1021.2 hPa | 0 mm | - | 192 W/m² | - |
| 1778102036 | 12.78° C | 84% | 1021.2 hPa | 0 mm | - | 169 W/m² | - |
| 1778101734 | 12.78° C | 84% | 1021.1 hPa | 0 mm | - | 143 W/m² | - |
| 1778101430 | 12.78° C | 84% | 1021.3 hPa | 0 mm | - | 143 W/m² | - |
| 1778101128 | 12.78° C | 84% | 1021.2 hPa | 0 mm | - | 168 W/m² | - |
| 1778100823 | 12.78° C | 83% | 1021.3 hPa | 0 mm | - | 132 W/m² | - |
| 1778100520 | 12.78° C | 83% | 1021.1 hPa | 0 mm | - | 199 W/m² | - |
| 1778100218 | 12.78° C | 84% | 1020.9 hPa | 0 mm | - | 180 W/m² | - |
* Rain latest hour (hover to see other rain measurements)
** Current wind speed in m/s (hover to see current wind gust speed)